Weather History for KCNC - November, 2013

Change the Weather History Date:

Friday, November 29, 2013

  Actual Average Record
Temperature  
Mean Temperature 28 °F -  
Max Temperature 41 °F 40 °F 69 °F (1998)
Min Temperature 14 °F 24 °F 3 °F (1959)
Degree Days  
Heating Degree Days 38    
Moisture  
Dew Point 19 °F    
Average Humidity 71    
Maximum Humidity 93    
Minimum Humidity 49    
Precipitation  
Precipitation 0.00 in - - ()
Sea Level Pressure  
Sea Level Pressure 30.40 in    
Wind  
Wind Speed 6 mph (SSE)    
Max Wind Speed 16 mph    
Max Gust Speed 21 mph    
Visibility 10 miles    
Events      
Averages and records for this station are not official NWS values.
T = Trace of Precipitation, MM = Missing Value Source: NWS Daily Summary

Daily Weather History Graph

Daily Weather History Graph

Search for Another Location

Airport or City:

Trip Planner

Search our weather history database for the weather conditions in past years. The results will help you decide how hot, cold, wet, or windy it might be!

Date:

Astronomy

Nov. 29, 2013 Rise Set
Actual Time 7:17 AM CST 4:46 PM CST
Civil Twilight 6:46 AM CST 5:16 PM CST
Nautical Twilight 6:12 AM CST 5:50 PM CST
Astronomical Twilight 5:39 AM CST 6:23 PM CST
Moon 3:21 AM CST (11/29) 2:32 PM CST (11/29)
Length of Visible Light 10h 30m
Length of Day
9h 29m
Waning Crescent, 14% of the Moon is Illuminated
Nov 29
Waning Crescent
Dec 2
New
Dec 9
First Quarter
Dec 17
Full
Dec 25
Last Quarter

Hourly Weather History & Observations

Time (CST) Temp. Windchill Dew Point Humidity Pressure Visibility Wind Dir Wind Speed Gust Speed Precip Events Conditions
12:15 AM 19.4 °F 14.3 °F 14.0 °F 80% 30.50 in 10.0 mi NW 3.5 mph - N/A   Clear
12:35 AM 19.4 °F 12.8 °F 14.0 °F 80% 30.49 in 10.0 mi North 4.6 mph - N/A   Clear
12:55 AM 17.6 °F 10.7 °F 14.0 °F 86% 30.48 in 10.0 mi North 4.6 mph - N/A   Clear
1:15 AM 19.4 °F - 14.0 °F 80% 30.48 in 10.0 mi Calm Calm - N/A   Clear
1:35 AM 17.6 °F - 14.0 °F 86% 30.48 in 10.0 mi Calm Calm - N/A   Clear
1:55 AM 19.4 °F - 14.0 °F 80% 30.49 in 10.0 mi Calm Calm - N/A   Clear
2:15 AM 17.6 °F - 14.0 °F 86% 30.50 in 10.0 mi Calm Calm - N/A   Clear
2:35 AM 17.6 °F - 12.2 °F 79% 30.51 in 10.0 mi Calm Calm - N/A   Clear
2:55 AM 15.8 °F - 12.2 °F 86% 30.51 in 10.0 mi Calm Calm - N/A   Clear
3:15 AM 14.0 °F - 12.2 °F 93% 30.50 in 10.0 mi Calm Calm - N/A   Clear
3:35 AM 15.8 °F - 12.2 °F 86% 30.51 in 10.0 mi Calm Calm - N/A   Clear
3:55 AM 15.8 °F - 12.2 °F 86% 30.50 in 10.0 mi Calm Calm - N/A   Clear
4:15 AM 17.6 °F - 14.0 °F 86% 30.51 in 10.0 mi Calm Calm - N/A   Scattered Clouds
4:35 AM 15.8 °F - 12.2 °F 86% 30.51 in 10.0 mi Calm Calm - N/A   Partly Cloudy
4:55 AM 15.8 °F - 12.2 °F 86% 30.51 in 10.0 mi Calm Calm - N/A   Clear
5:15 AM 15.8 °F - 12.2 °F 86% 30.51 in 10.0 mi Calm Calm - N/A   Mostly Cloudy
5:35 AM 14.0 °F 8.2 °F 10.4 °F 86% 30.51 in 10.0 mi SE 3.5 mph - N/A   Mostly Cloudy
5:55 AM 14.0 °F 6.5 °F 10.4 °F 86% 30.51 in 10.0 mi SE 4.6 mph - N/A   Partly Cloudy
6:15 AM 14.0 °F 5.1 °F 10.4 °F 86% 30.51 in 10.0 mi SE 5.8 mph - N/A   Mostly Cloudy
6:35 AM 14.0 °F 5.1 °F 12.2 °F 93% 30.51 in 10.0 mi SE 5.8 mph - N/A   Overcast
6:55 AM 15.8 °F 7.2 °F 12.2 °F 86% 30.50 in 10.0 mi SE 5.8 mph - N/A   Overcast
7:15 AM 15.8 °F 7.2 °F 12.2 °F 86% 30.50 in 9.0 mi SE 5.8 mph - N/A   Scattered Clouds
7:35 AM 17.6 °F 9.3 °F 14.0 °F 86% 30.50 in 9.0 mi SE 5.8 mph - N/A   Clear
7:55 AM 19.4 °F 10.4 °F 15.8 °F 86% 30.50 in 9.0 mi SE 6.9 mph - N/A   Clear
8:15 AM 19.4 °F 10.4 °F 15.8 °F 86% 30.51 in 10.0 mi SSE 6.9 mph - N/A   Clear
8:35 AM 23.0 °F 14.7 °F 17.6 °F 80% 30.51 in 10.0 mi SSE 6.9 mph - N/A   Clear
8:55 AM 24.8 °F 14.0 °F 19.4 °F 80% 30.50 in 10.0 mi SSE 11.5 mph - N/A   Clear
9:15 AM 26.6 °F 15.7 °F 19.4 °F 74% 30.50 in 10.0 mi SSE 12.7 mph - N/A   Clear
9:35 AM 28.4 °F 17.5 °F 19.4 °F 69% 30.50 in 10.0 mi SSE 13.8 mph - N/A   Clear
9:55 AM 28.4 °F 17.5 °F 21.2 °F 74% 30.50 in 10.0 mi SSE 13.8 mph - N/A   Clear
10:15 AM 30.2 °F 20.2 °F 21.2 °F 69% 30.50 in 10.0 mi South 12.7 mph 18.4 mph N/A   Clear
10:35 AM 32.0 °F 21.6 °F 21.2 °F 64% 30.50 in 10.0 mi South 15.0 mph - N/A   Clear
10:55 AM 32.0 °F 22.5 °F 21.2 °F 64% 30.49 in 10.0 mi South 12.7 mph - N/A   Clear
11:15 AM 32.0 °F 21.6 °F 19.4 °F 60% 30.47 in 10.0 mi SSE 15.0 mph - N/A   Clear
11:35 AM 32.0 °F 22.1 °F 21.2 °F 64% 30.46 in 10.0 mi SSE 13.8 mph - N/A   Clear
11:55 AM 35.6 °F 28.0 °F 21.2 °F 56% 30.45 in 10.0 mi South 10.4 mph 18.4 mph N/A   Clear
12:15 PM 37.4 °F 28.9 °F 21.2 °F 52% 30.43 in 10.0 mi South 13.8 mph 20.7 mph N/A   Clear
12:35 PM 37.4 °F 29.3 °F 21.2 °F 52% 30.42 in 10.0 mi South 12.7 mph 19.6 mph N/A   Clear
12:55 PM 39.2 °F 30.8 °F 21.2 °F 49% 30.41 in 10.0 mi South 15.0 mph - N/A   Clear
1:15 PM 39.2 °F 31.2 °F 21.2 °F 49% 30.39 in 10.0 mi South 13.8 mph - N/A   Clear
1:35 PM 39.2 °F 31.6 °F 23.0 °F 52% 30.38 in 10.0 mi SSE 12.7 mph 18.4 mph N/A   Clear
1:55 PM 41.0 °F 33.5 °F 23.0 °F 49% 30.37 in 10.0 mi SSE 13.8 mph - N/A   Clear
2:15 PM 41.0 °F 33.5 °F 23.0 °F 49% 30.36 in 10.0 mi SSE 13.8 mph - N/A   Clear
2:35 PM 41.0 °F 33.5 °F 23.0 °F 49% 30.34 in 10.0 mi SSE 13.8 mph 19.6 mph N/A   Clear
2:55 PM 41.0 °F 33.9 °F 23.0 °F 49% 30.33 in 10.0 mi SSE 12.7 mph - N/A   Clear
3:15 PM 41.0 °F 34.3 °F 23.0 °F 49% 30.33 in 10.0 mi SSE 11.5 mph - N/A   Clear
3:35 PM 39.2 °F 33.6 °F 23.0 °F 52% 30.32 in 10.0 mi SSE 8.1 mph 13.8 mph N/A   Clear
3:55 PM 39.2 °F 32.5 °F 23.0 °F 52% 30.31 in 10.0 mi SSE 10.4 mph - N/A   Clear
4:15 PM 39.2 °F 33.6 °F 23.0 °F 52% 30.31 in 10.0 mi SE 8.1 mph - N/A   Clear
4:35 PM 39.2 °F 33.0 °F 24.8 °F 56% 30.30 in 10.0 mi SSE 9.2 mph - N/A   Clear
4:55 PM 37.4 °F 30.8 °F 24.8 °F 60% 30.30 in 10.0 mi SE 9.2 mph - N/A   Clear
5:15 PM 37.4 °F 30.8 °F 24.8 °F 60% 30.29 in 10.0 mi SE 9.2 mph - N/A   Clear
5:35 PM 35.6 °F 28.6 °F 24.8 °F 65% 30.29 in 10.0 mi SSE 9.2 mph - N/A   Mostly Cloudy
5:55 PM 35.6 °F 28.0 °F 23.0 °F 60% 30.30 in 10.0 mi SE 10.4 mph - N/A   Overcast
6:15 PM 35.6 °F 28.0 °F 23.0 °F 60% 30.29 in 10.0 mi SSE 10.4 mph - N/A   Overcast
6:35 PM 35.6 °F 27.5 °F 23.0 °F 60% 30.29 in 10.0 mi SSE 11.5 mph - N/A   Overcast
6:55 PM 33.8 °F 26.4 °F 24.8 °F 70% 30.29 in 10.0 mi SSE 9.2 mph - N/A   Overcast
7:15 PM 33.8 °F 25.8 °F 24.8 °F 70% 30.29 in 10.0 mi SSE 10.4 mph - N/A   Overcast
7:35 PM 33.8 °F 26.4 °F 24.8 °F 70% 30.28 in 10.0 mi SSE 9.2 mph - N/A   Overcast
7:55 PM 33.8 °F 25.8 °F 24.8 °F 70% 30.28 in 10.0 mi SSE 10.4 mph - N/A   Overcast
8:15 PM 33.8 °F 25.3 °F 24.8 °F 70% 30.27 in 10.0 mi SSE 11.5 mph - N/A   Overcast
8:35 PM 33.8 °F 24.8 °F 24.8 °F 70% 30.27 in 10.0 mi SSE 12.7 mph - N/A   Overcast
8:55 PM 33.8 °F 25.8 °F 24.8 °F 70% 30.27 in 10.0 mi SSE 10.4 mph - N/A   Mostly Cloudy
9:15 PM 33.8 °F 24.8 °F 24.8 °F 70% 30.26 in 10.0 mi SSE 12.7 mph - N/A   Mostly Cloudy
9:35 PM 33.8 °F 25.3 °F 24.8 °F 70% 30.26 in 10.0 mi SSE 11.5 mph - N/A   Overcast
9:55 PM 33.8 °F 25.3 °F 24.8 °F 70% 30.25 in 10.0 mi SSE 11.5 mph - N/A   Overcast
10:15 PM 33.8 °F 23.5 °F 24.8 °F 70% 30.24 in 10.0 mi SSE 16.1 mph - N/A   Partly Cloudy
10:35 PM 32.0 °F 23.6 °F 24.8 °F 75% 30.25 in 10.0 mi South 10.4 mph 16.1 mph N/A   Scattered Clouds
10:55 PM 32.0 °F 23.6 °F 24.8 °F 75% 30.25 in 10.0 mi SSE 10.4 mph - N/A   Partly Cloudy
11:15 PM 32.0 °F 23.6 °F 24.8 °F 75% 30.24 in 10.0 mi SSE 10.4 mph - N/A   Mostly Cloudy
11:35 PM 32.0 °F 24.2 °F 24.8 °F 75% 30.24 in 10.0 mi South 9.2 mph - N/A   Overcast
11:55 PM 32.0 °F 24.2 °F 24.8 °F 75% 30.24 in 10.0 mi South 9.2 mph - N/A   Overcast